Tracking 28341 objects as of 6-Dec-2023
HD Live streaming from Space Station
objects crossing your sky now

STARLINK-2374

Track STARLINK-2374 now!
10-day predictions
STARLINK-2374 is classified as:


NORAD ID: 47913
Int'l Code: 2021-021BF
Perigee: 553.2 km
Apogee: 555.5 km
Inclination: 53.1 °
Period: 95.6 minutes
Semi major axis: 6925 km
RCS: Unknown
Launch date: March 14, 2021
Source: United States (US)
Launch site: AIR FORCE EASTERN TEST RANGE (AFETR)
Your satellite tracking list
Your tracking list is empty




NASA's NSSDC Master Catalog

Two Line Element Set (TLE):
1 47913U 21021BF  23339.40157008  .00005646  00000-0  39755-3 0  9998
2 47913  53.0540  26.9530 0001657  80.2898 279.8278 15.06407352151667
Source of the keplerian elements: AFSPC